User: anonymous   Login
Location: Camp Creek
(33.9000°N, 111.8167°W)
Time: 02:29:55
(UTC-07:00)
Language:

Cosmos 1656 - Orbit

View from above orbital plane
View from above orbital plane
View from above satellite
View from above satellite

Ground track
Ground track

The orbit data is extracted from the following two-line orbital elements,

1 15755U 85042A   15108.46601953  .00000042  00000-0  41371-4 0  9997
2 15755 071.1121 229.1164 0036304 202.7392 157.2128 14.20354835548417
Epoch (UTC): 18 April 2015 11:11:04
Eccentricity: 0.0036304
inclination: 71.1121°
perigee height: 798 km
apogee height: 850 km
right ascension of ascending node: 229.1164°
argument of perigee: 202.7392°
revolutions per day: 14.20354835
mean anomaly at epoch: 157.2128°
orbit number at epoch: 54841

The dashed part of the orbit path shows where the satellite is in the earth's shadow,  

DLR